[[{"header":{"parameterUnit":"m.s-1","parameterCategory":1,"la1":30.2991,"la2":30.254,"lo1":-89.0895,"lo2":-89.0444,"dy":0.0017,"dx":0.0017,"nx":28,"ny":28,"refTime":"2024-07-02T09:00:00:Z","depth":0,"parameterNumber":2,"parameterNumberName":"U-component_of_WINDS"},"data":[0,0,0,0,0,0,0,0,0,0,0,0,0,0,0,0,0,0,0,0,0,0,0,0,0,0,0,0,0,0,0,0,0,0,0,0,0,0,0,0,0,0,0,0,0,0,0,0,0,0,0,0,0,0,0,0,0,0,-0.5455,-0.5454,0,-0.5345,-0.5343,-0.5342,-0.5261,-0.526,-0.5259,-0.5259,-0.5145,-0.5143,-0.514,0,0,0,0,0,0,0,0,0,0,0,0,0,-0.5596,-0.5594,-0.5455,-0.5454,-0.5452,-0.5345,-0.5343,-0.5342,-0.5261,-0.526,-0.5259,-0.5258,-0.5146,-0.5143,-0.514,0,0,0,0,0,0,0,0,0,0,0,0,0,-0.5515,-0.5593,-0.5455,-0.5399,-0.5393,-0.5345,-0.5343,-0.5341,-0.5261,-0.526,-0.5259,-0.5258,-0.5147,-0.5143,-0.514,-0.5139,0,0,-0.5129,-0.5127,0,0,0,0,0,0,0,0,-0.552,-0.551,-0.5409,-0.5403,-0.5396,-0.5315,-0.5351,-0.5274,-0.5261,-0.5311,-0.5259,-0.5257,-0.5202,-0.5194,-0.5176,-0.5134,-0.5129,-0.5128,-0.5126,-0.5125,-0.5124,0,0,0,0,0,0,0,-0.5525,-0.5514,-0.5411,-0.5407,-0.54,-0.5379,-0.5367,-0.5336,-0.5264,-0.5307,-0.53,-0.5289,-0.5199,-0.5179,-0.5172,-0.5127,-0.5128,-0.5125,-0.5123,-0.5122,-0.5079,-0.508,0,0,0,0,0,0,-0.554,-0.552,-0.5415,-0.5408,-0.5457,-0.5378,-0.5363,-0.5342,-0.5264,-0.5251,-0.529,-0.5285,-0.5186,-0.5177,-0.5168,-0.5163,-0.5125,-0.5121,-0.5119,-0.5078,-0.508,-0.5081,0,0,0,0,0,0,-0.5543,-0.5531,-0.5419,-0.5462,-0.5446,-0.5376,-0.5353,-0.5341,-0.5321,-0.5251,-0.5238,-0.5283,-0.5185,-0.5173,-0.5147,-0.5157,-0.512,-0.5117,-0.5077,-0.5079,-0.508,-0.5152,0,0,0,0,0,0,-0.5548,-0.5533,-0.5532,-0.5463,-0.5444,-0.54,-0.5354,-0.5339,-0.5315,-0.5309,-0.5242,-0.523,-0.5183,-0.5153,-0.5143,-0.5152,-0.5114,-0.5076,-0.5078,-0.508,-0.5148,-0.5155,-0.5162,0,0,0,0,0,-0.5553,-0.5556,-0.5532,-0.552,-0.5442,-0.5401,-0.5391,-0.5337,-0.5317,-0.5315,-0.527,-0.5232,-0.5158,-0.5151,-0.514,-0.5147,-0.5075,-0.5077,-0.5079,-0.5145,-0.5154,-0.5161,0,0,0,0,0,0,-0.5628,-0.5546,-0.5519,-0.55,-0.5458,-0.5387,-0.5384,-0.5348,-0.5311,-0.5307,-0.5242,-0.5227,-0.5208,-0.5175,-0.5168,-0.5143,-0.5112,-0.5112,-0.5165,-0.5173,-0.518,-0.5188,-0.5111,0,0,0,0,0,-0.5643,-0.5617,-0.5546,-0.5536,-0.5517,-0.5454,-0.5435,-0.5397,-0.5351,-0.5333,-0.5286,-0.5243,-0.521,-0.519,-0.5155,-0.5143,-0.5127,-0.5143,-0.515,-0.5155,-0.5156,-0.5148,-0.5154,-0.5088,-0.5088,-0.5088,0,0,-0.5672,-0.5624,-0.5612,-0.555,-0.5514,-0.5488,-0.544,-0.5415,-0.5395,-0.5329,-0.5302,-0.5266,-0.5214,-0.5195,-0.5184,-0.5166,-0.5171,-0.5158,-0.5164,-0.5161,-0.5151,-0.5157,-0.5163,-0.509,-0.5089,-0.5089,0,0,-0.5713,-0.5674,-0.5662,-0.5626,-0.5571,-0.553,-0.5527,-0.5462,-0.5436,-0.5407,-0.5357,-0.5333,-0.5278,-0.5243,-0.5217,-0.5246,-0.521,-0.5237,-0.5273,-0.5265,-0.527,-0.5275,-0.5285,-0.529,-0.5238,-0.5238,-0.5238,0,-0.5756,-0.5716,-0.566,-0.5638,-0.5613,-0.5552,-0.5539,-0.5507,-0.5444,-0.5428,-0.541,-0.534,-0.53,-0.5272,-0.5279,-0.5261,-0.5256,-0.5244,-0.5274,-0.5278,-0.5281,-0.5291,-0.5295,-0.5242,-0.5242,-0.5241,-0.5241,0,-0.5773,-0.5746,-0.5742,-0.5683,-0.5658,-0.5641,-0.5582,-0.5562,-0.5528,-0.5488,-0.5461,-0.5411,-0.5366,-0.5357,-0.5322,-0.5324,-0.5315,-0.5286,-0.5254,-0.5292,-0.53,-0.5303,-0.5247,-0.5246,-0.5245,-0.5244,0,0,-0.5857,-0.5768,-0.5768,-0.574,-0.5676,-0.5654,-0.5635,-0.5591,-0.5576,-0.5535,-0.5517,-0.5472,-0.5445,-0.5417,-0.5378,-0.5372,-0.5398,-0.5343,-0.5341,-0.5356,-0.5398,-0.542,-0.5425,-0.5374,-0.5374,-0.5374,-0.5403,0,-0.5888,-0.5849,-0.5799,-0.5777,-0.5752,-0.5695,-0.5677,-0.5636,-0.5599,-0.5572,-0.5531,-0.5501,-0.5467,-0.545,-0.5441,-0.5397,-0.5406,-0.5394,-0.5357,-0.5356,-0.5372,-0.5429,-0.5452,-0.5481,-0.5405,-0.5406,-0.5406,0,-0.5919,-0.5881,-0.5858,-0.5796,-0.5784,-0.5769,-0.5726,-0.5701,-0.5653,-0.5626,-0.5596,-0.5554,-0.5531,-0.5502,-0.5469,-0.5462,-0.5444,-0.542,-0.542,-0.5414,-0.5383,-0.5426,-0.5489,-0.5494,-0.541,-0.541,-0.541,0,-0.5983,-0.5927,-0.5905,-0.5884,-0.5812,-0.5803,-0.5772,-0.5724,-0.5701,-0.5663,-0.5648,-0.5608,-0.5586,-0.5556,-0.5504,-0.5488,-0.5477,-0.5444,-0.5455,-0.5456,-0.5455,-0.5456,-0.5517,-0.5443,-0.5443,-0.5443,-0.5443,0,-0.6023,-0.6011,-0.5934,-0.5921,-0.5906,-0.5847,-0.5834,-0.5798,-0.5756,-0.5735,-0.5683,-0.5664,-0.5598,-0.5572,-0.5531,-0.5511,-0.5501,-0.5479,-0.5469,-0.5484,-0.5487,-0.5471,-0.5468,-0.5444,-0.5444,-0.5444,-0.5444,0,-0.6093,-0.604,-0.6013,-0.5947,-0.593,-0.5922,-0.5866,-0.5851,-0.5811,-0.5786,-0.5776,-0.5714,-0.5681,-0.5627,-0.5577,-0.555,-0.5537,-0.5519,-0.5553,-0.5547,-0.5561,-0.5561,-0.5614,-0.5618,-0.5543,-0.5544,-0.5544,0,-0.6122,-0.6111,-0.6044,-0.6027,-0.5998,-0.597,-0.5947,-0.589,-0.5868,-0.5813,-0.5805,-0.5768,-0.5735,-0.5685,-0.5635,-0.5597,-0.5578,-0.56,-0.5572,-0.5588,-0.5579,-0.558,-0.5579,-0.5606,-0.5607,-0.5608,-0.5609,0,-0.6179,-0.6154,-0.6122,-0.6082,-0.6056,-0.6022,-0.5985,-0.5973,-0.5908,-0.5886,-0.5851,-0.5826,-0.5776,-0.574,-0.5695,-0.5664,-0.5626,-0.5618,-0.5618,-0.5634,-0.5654,-0.5644,-0.5571,-0.5617,-0.5616,-0.5615,-0.5615,-0.5615,-0.6229,-0.6217,-0.6168,-0.6135,-0.6102,-0.6068,-0.6052,-0.601,-0.598,-0.5935,-0.5903,-0.5871,-0.5824,-0.5761,-0.5732,-0.5706,-0.5689,-0.5689,-0.569,-0.5691,-0.5697,-0.5659,-0.5697,-0.5697,-0.5697,-0.5697,-0.5696,0,-0.6283,-0.6249,-0.622,-0.617,-0.6144,-0.6111,-0.6069,-0.6049,-0.6022,-0.5981,-0.595,-0.5911,-0.5876,-0.5824,-0.5785,-0.5775,-0.5756,-0.5766,-0.5767,-0.576,-0.5714,-0.5718,-0.5782,-0.5782,-0.5782,-0.5782,-0.5782,-0.5782,-0.6309,-0.6287,-0.6257,-0.6218,-0.6184,-0.6152,-0.6131,-0.61,-0.6068,-0.6027,-0.5998,-0.5964,-0.5919,-0.5877,-0.5843,-0.5829,-0.5817,-0.5833,-0.5813,-0.5771,-0.5763,-0.5756,-0.5759,-0.5831,-0.5831,-0.5861,-0.5861,-0.5862]},{"header":{"parameterUnit":"m.s-1","parameterCategory":1,"la1":30.2991,"la2":30.254,"lo1":-89.0895,"lo2":-89.0444,"dy":0.0017,"dx":0.0017,"nx":28,"ny":28,"refTime":"2024-07-02T09:00:00:Z","depth":0,"parameterNumber":3,"parameterNumberName":"V-component_of_WINDS"},"data":[0,0,0,0,0,0,0,0,0,0,0,0,0,0,0,0,0,0,0,0,0,0,0,0,0,0,0,0,0,0,0,0,0,0,0,0,0,0,0,0,0,0,0,0,0,0,0,0,0,0,0,0,0,0,0,0,0,0,2.6995,2.6995,0,2.6985,2.6985,2.6985,2.6972,2.6972,2.6971,2.6971,2.6961,2.6961,2.6961,0,0,0,0,0,0,0,0,0,0,0,0,0,2.7002,2.7002,2.6995,2.6995,2.6995,2.6985,2.6985,2.6985,2.6972,2.6972,2.6971,2.6971,2.6961,2.6961,2.6961,0,0,0,0,0,0,0,0,0,0,0,0,0,2.6996,2.7002,2.6995,2.6987,2.6986,2.6985,2.6985,2.6985,2.6972,2.6972,2.6971,2.6971,2.6961,2.6961,2.6961,2.6967,0,0,2.6961,2.6961,0,0,0,0,0,0,0,0,2.6997,2.6996,2.6988,2.6988,2.6987,2.6979,2.6984,2.6979,2.6972,2.6977,2.6971,2.6971,2.6968,2.6967,2.6966,2.6967,2.6966,2.6961,2.6961,2.6961,2.6961,0,0,0,0,0,0,0,2.6997,2.6997,2.6991,2.6988,2.6987,2.6984,2.6983,2.6983,2.6975,2.6977,2.6976,2.6975,2.6967,2.6966,2.6966,2.6966,2.6961,2.6961,2.6961,2.6961,2.6971,2.6971,0,0,0,0,0,0,2.6999,2.6997,2.6991,2.6991,2.6991,2.6984,2.6983,2.6982,2.6974,2.6973,2.6975,2.6974,2.6966,2.6966,2.6965,2.6971,2.6961,2.6961,2.6961,2.6971,2.6971,2.6972,0,0,0,0,0,0,2.6999,2.6998,2.6992,2.6994,2.6993,2.6984,2.6984,2.6982,2.6981,2.6973,2.6972,2.6976,2.6966,2.6965,2.6967,2.6971,2.6961,2.6961,2.697,2.6971,2.6971,2.6984,0,0,0,0,0,0,2.6999,2.6999,2.7001,2.6994,2.6993,2.6994,2.6984,2.6982,2.6981,2.698,2.6973,2.6972,2.6966,2.6967,2.6967,2.697,2.6961,2.697,2.6971,2.6971,2.6983,2.6985,2.6986,0,0,0,0,0,2.7,2.7005,2.7001,2.7,2.6995,2.6994,2.6993,2.6986,2.6981,2.6983,2.6978,2.6972,2.6971,2.6967,2.6967,2.6971,2.697,2.697,2.6971,2.6982,2.6984,2.6986,0,0,0,0,0,0,2.7012,2.7004,2.6999,2.7002,2.6999,2.6992,2.6994,2.6988,2.6986,2.6985,2.6977,2.6975,2.6978,2.6974,2.6971,2.6976,2.6969,2.697,2.6978,2.698,2.6981,2.6981,2.6961,0,0,0,0,0,2.7015,2.7015,2.7008,2.7011,2.701,2.7002,2.7001,2.6996,2.6992,2.6991,2.6986,2.6982,2.6981,2.698,2.6979,2.6983,2.6981,2.6985,2.6987,2.6988,2.6988,2.699,2.6991,2.6974,2.6974,2.6974,0,0,2.7022,2.7017,2.7018,2.7014,2.701,2.701,2.7001,2.7001,2.7001,2.6991,2.6992,2.6988,2.6983,2.6986,2.6987,2.6983,2.6993,2.6989,2.699,2.699,2.6991,2.6992,2.6994,2.6975,2.6974,2.6974,0,0,2.7033,2.703,2.7032,2.7029,2.7024,2.702,2.702,2.7014,2.7011,2.7012,2.7004,2.7004,2.7002,2.6998,2.6997,2.7007,2.7001,2.7007,2.7015,2.7016,2.7017,2.7019,2.7022,2.7023,2.7008,2.7008,2.7008,0,2.7042,2.7041,2.7034,2.7035,2.7033,2.7024,2.7026,2.7024,2.7019,2.7018,2.7014,2.7011,2.7007,2.7009,2.7011,2.701,2.701,2.7007,2.7018,2.7019,2.702,2.7023,2.7024,2.7008,2.7008,2.7008,2.7008,0,2.7052,2.7052,2.7054,2.7049,2.7048,2.7049,2.7042,2.7042,2.7037,2.7032,2.7033,2.7029,2.7026,2.7026,2.7021,2.7027,2.7024,2.702,2.7012,2.7022,2.7025,2.7026,2.7009,2.7009,2.7009,2.7009,0,0,2.707,2.7062,2.7063,2.706,2.7054,2.7054,2.7055,2.7052,2.7052,2.7049,2.7049,2.7048,2.7043,2.7041,2.7036,2.7037,2.7045,2.7032,2.7032,2.7034,2.705,2.7053,2.7055,2.7042,2.7042,2.7042,2.705,0,2.708,2.7081,2.7075,2.7077,2.7077,2.7069,2.7069,2.7066,2.7062,2.7061,2.7056,2.7055,2.7049,2.7048,2.7049,2.7044,2.7048,2.7043,2.7041,2.7041,2.7042,2.7056,2.706,2.7068,2.7051,2.7051,2.7052,0,2.7091,2.7089,2.7091,2.7085,2.7085,2.7086,2.7082,2.7082,2.7077,2.7074,2.7072,2.7066,2.7067,2.7061,2.7061,2.7058,2.7057,2.7054,2.7054,2.7053,2.7046,2.7055,2.707,2.7071,2.7053,2.7053,2.7053,0,2.7104,2.7101,2.7102,2.71,2.7093,2.7094,2.7091,2.7087,2.7086,2.7083,2.7082,2.7079,2.7078,2.7076,2.7069,2.7066,2.707,2.7064,2.7067,2.7067,2.7068,2.7068,2.7082,2.7068,2.7068,2.7068,2.7068,0,2.7115,2.7116,2.7107,2.7108,2.711,2.7103,2.7104,2.7101,2.7097,2.7096,2.709,2.7089,2.7081,2.708,2.7075,2.7076,2.7075,2.7073,2.7071,2.7073,2.7073,2.7071,2.707,2.7069,2.7069,2.7069,2.7069,0,2.7128,2.7122,2.7123,2.7116,2.7115,2.7116,2.7111,2.7111,2.7107,2.7106,2.7106,2.7099,2.7097,2.7091,2.7088,2.7084,2.7086,2.7084,2.7087,2.7086,2.709,2.7089,2.7103,2.7105,2.709,2.7091,2.7091,0,2.7135,2.7136,2.713,2.7129,2.7126,2.7125,2.7124,2.7117,2.7116,2.7112,2.7112,2.711,2.7108,2.7105,2.71,2.7097,2.7094,2.71,2.7094,2.7095,2.7094,2.7093,2.7093,2.7101,2.7101,2.7101,2.7101,0,2.7148,2.7145,2.7143,2.714,2.7139,2.7136,2.7133,2.7133,2.7126,2.7125,2.7123,2.7121,2.7118,2.7116,2.7112,2.7109,2.7104,2.7103,2.7103,2.7105,2.7106,2.7105,2.709,2.7102,2.7102,2.7102,2.7102,2.7102,2.7157,2.7158,2.7153,2.7152,2.7149,2.7146,2.7146,2.7142,2.714,2.7137,2.7133,2.7132,2.7128,2.7123,2.712,2.7119,2.7116,2.7117,2.7117,2.7117,2.7117,2.7107,2.7118,2.7118,2.7118,2.7118,2.7118,0,2.7169,2.7166,2.7164,2.7161,2.7159,2.7155,2.7151,2.715,2.7149,2.7146,2.7144,2.7142,2.7139,2.7134,2.7131,2.7131,2.7129,2.7131,2.713,2.7129,2.712,2.712,2.7133,2.7133,2.7133,2.7133,2.7133,2.7133,2.7175,2.7175,2.7172,2.7171,2.7168,2.7166,2.7165,2.7162,2.7159,2.7157,2.7155,2.7152,2.7148,2.7145,2.7142,2.7141,2.714,2.7142,2.714,2.7131,2.713,2.7129,2.7128,2.7142,2.7142,2.7149,2.7149,2.7149]}]]